{"data":{"norad_id":56881,"epoch":"2026-05-24T21:59:48.884064Z","epoch_age_seconds":89215,"freshness":"FRESH","line1":"1 56881U 23083F   26144.91653801  .00000393  00000+0  23822-4 0  9999","line2":"2 56881  43.0028  15.1038 0001347 248.2009 111.8700 15.27578069163283","mean_motion":15.27578069,"eccentricity":0.0001347,"inclination_deg":43.0028,"raan_deg":15.1038,"arg_perigee_deg":248.2009,"mean_anomaly_deg":111.87,"bstar":2.3822e-5,"rev_number":16328,"period_min":94.266867875543,"perigee_km":482.13067560843,"apogee_km":483.97908070041,"semimajor_km":6861.1918781544,"source":"CELESTRAK","updated_at":"2026-05-25T13:38:18.167475Z"}}